Tracking 30115 objects as of 16-Jan-2025
HD Live streaming from Space Station
objects crossing your sky now

STARLINK-32683

Track STARLINK-32683 now!
10-day predictions
STARLINK-32683 is classified as:


NORAD ID: 62445
Int'l Code: 2024-251P
Perigee: 354.8 km
Apogee: 356.2 km
Inclination: 53.2 °
Period: 91.5 minutes
Semi major axis: 6726 km
RCS: Unknown
Launch date: December 29, 2024
Source: United States (US)
Launch site: AIR FORCE WESTERN TEST RANGE (AFWTR)
Your satellite tracking list
Your tracking list is empty




NASA's NSSDC Master Catalog

Two Line Element Set (TLE):
1 62445U 24251P   25016.16667824 -.01343591  00000-0 -10510-1 0  9995
2 62445  53.1586 126.1692 0001002 127.4117 176.4096 15.73694617  3852
Source of the keplerian elements: AFSPC